WEN3627 KPDX-CYYC

Flight info

Callsign WEN3627
Flight time N/A
Altitude 25000
Route LAVAA7 SUNED DCT DBLUS DCT ANTAK IGVEP7
Aircraft DH8D/M-SDE2E3FGRY/H

Departure

Time N/A
Airport Portland International Airport (KPDX)

Arrival

Time 2026-05-07 22:14
Airport Calgary International Airport (CYYC)
Time Latitude Longitude Altitude Speed Heading
2026-05-07 21:20 47.45998 -118.51775 25025 ft 352 kts 35°
2026-05-07 21:20 47.47846 -118.49417 25028 ft 352 kts 35°
2026-05-07 21:20 47.49700 -118.47050 25031 ft 352 kts 35°
2026-05-07 21:21 47.51545 -118.44691 25034 ft 352 kts 35°
2026-05-07 21:21 47.53409 -118.42306 25037 ft 352 kts 35°
2026-05-07 21:21 47.55249 -118.39950 25039 ft 352 kts 35°
2026-05-07 21:21 47.57108 -118.37567 25042 ft 352 kts 35°
2026-05-07 21:22 47.58962 -118.35188 25045 ft 352 kts 35°
2026-05-07 21:22 47.60796 -118.32832 25048 ft 352 kts 36°
2026-05-07 21:22 47.62656 -118.30441 25050 ft 352 kts 36°
2026-05-07 21:22 47.64484 -118.28088 25050 ft 352 kts 36°
2026-05-07 21:23 47.66325 -118.25716 25050 ft 352 kts 36°
2026-05-07 21:23 47.68167 -118.23342 25050 ft 352 kts 36°
2026-05-07 21:23 47.70015 -118.20956 25051 ft 352 kts 36°
2026-05-07 21:23 47.71852 -118.18583 25050 ft 352 kts 36°
2026-05-07 21:24 47.73686 -118.16211 25051 ft 352 kts 36°
2026-05-07 21:24 47.75549 -118.13799 25051 ft 352 kts 36°
2026-05-07 21:24 47.77381 -118.11426 25050 ft 352 kts 36°
2026-05-07 21:24 47.79205 -118.09059 25050 ft 352 kts 36°
2026-05-07 21:25 47.81052 -118.06661 25050 ft 352 kts 36°
2026-05-07 21:25 47.82909 -118.04248 25050 ft 352 kts 36°
2026-05-07 21:25 47.84747 -118.01856 25050 ft 352 kts 36°
2026-05-07 21:25 47.86579 -117.99470 25050 ft 352 kts 36°
2026-05-07 21:26 47.88403 -117.97092 25050 ft 352 kts 36°
2026-05-07 21:26 47.90257 -117.94674 25050 ft 352 kts 36°
2026-05-07 21:26 47.92088 -117.92283 25050 ft 352 kts 36°
2026-05-07 21:26 47.93916 -117.89893 25050 ft 352 kts 36°
2026-05-07 21:27 47.95755 -117.87485 25050 ft 352 kts 36°
2026-05-07 21:27 47.97591 -117.85081 25051 ft 352 kts 36°
2026-05-07 21:27 47.99415 -117.82688 25050 ft 352 kts 36°
2026-05-07 21:27 48.01262 -117.80264 25050 ft 352 kts 36°
2026-05-07 21:28 48.03102 -117.77846 25049 ft 352 kts 36°
2026-05-07 21:28 48.04914 -117.75464 25051 ft 352 kts 36°
2026-05-07 21:28 48.06768 -117.73024 25050 ft 352 kts 36°
2026-05-07 21:28 48.08600 -117.70610 25050 ft 352 kts 36°
2026-05-07 21:29 48.10426 -117.68201 25051 ft 352 kts 36°
2026-05-07 21:29 48.12253 -117.65789 25050 ft 352 kts 36°
2026-05-07 21:29 48.14082 -117.63373 25051 ft 352 kts 36°
2026-05-07 21:29 48.15916 -117.60948 25051 ft 352 kts 36°
2026-05-07 21:30 48.17757 -117.58511 25051 ft 352 kts 36°
2026-05-07 21:30 48.19583 -117.56091 25050 ft 352 kts 36°
2026-05-07 21:30 48.21432 -117.53638 25050 ft 352 kts 36°
2026-05-07 21:30 48.23260 -117.51211 25051 ft 352 kts 36°
2026-05-07 21:31 48.25079 -117.48793 25051 ft 353 kts 36°
2026-05-07 21:31 48.26918 -117.46345 25051 ft 353 kts 36°
2026-05-07 21:31 48.28759 -117.43892 25051 ft 353 kts 36°
2026-05-07 21:31 48.30589 -117.41452 25050 ft 353 kts 36°
2026-05-07 21:32 48.32399 -117.39023 25051 ft 353 kts 36°
2026-05-07 21:32 48.34197 -117.36447 25052 ft 355 kts 38°
2026-05-07 21:32 48.35959 -117.33868 25048 ft 354 kts 39°
2026-05-07 21:32 48.37715 -117.31300 25050 ft 353 kts 39°
2026-05-07 21:33 48.39475 -117.28730 25049 ft 353 kts 39°
2026-05-07 21:33 48.41237 -117.26156 25044 ft 352 kts 39°
2026-05-07 21:33 48.42974 -117.23618 25041 ft 352 kts 39°
2026-05-07 21:33 48.44730 -117.21053 25037 ft 352 kts 39°
2026-05-07 21:34 48.46495 -117.18475 25031 ft 353 kts 39°
2026-05-07 21:34 48.48255 -117.15900 25025 ft 353 kts 39°
2026-05-07 21:34 48.49998 -117.13350 25019 ft 353 kts 39°
2026-05-07 21:34 48.51778 -117.10744 25015 ft 354 kts 38°
2026-05-07 21:35 48.53519 -117.08191 25014 ft 354 kts 38°
2026-05-07 21:35 48.55283 -117.05603 25014 ft 354 kts 38°
2026-05-07 21:35 48.57064 -117.02987 25014 ft 354 kts 38°
2026-05-07 21:35 48.58810 -117.00421 25014 ft 354 kts 38°
2026-05-07 21:36 48.60580 -116.97817 25015 ft 354 kts 38°
2026-05-07 21:36 48.62324 -116.95248 25014 ft 354 kts 38°
2026-05-07 21:36 48.64093 -116.92640 25013 ft 355 kts 38°
2026-05-07 21:36 48.65868 -116.90022 25013 ft 355 kts 38°
2026-05-07 21:37 48.67624 -116.87426 25014 ft 355 kts 38°
2026-05-07 21:37 48.69371 -116.84843 25014 ft 355 kts 38°
2026-05-07 21:37 48.71136 -116.82231 25014 ft 355 kts 38°
2026-05-07 21:37 48.72890 -116.79631 25014 ft 355 kts 38°
2026-05-07 21:38 48.74661 -116.77005 25014 ft 355 kts 38°
2026-05-07 21:38 48.76429 -116.74380 25013 ft 355 kts 38°
2026-05-07 21:38 48.78175 -116.71785 25013 ft 355 kts 38°
2026-05-07 21:38 48.79935 -116.69166 25014 ft 355 kts 38°
2026-05-07 21:39 48.81704 -116.66531 25013 ft 355 kts 38°
2026-05-07 21:39 48.83448 -116.63931 25013 ft 355 kts 38°
2026-05-07 21:39 48.85210 -116.61300 25012 ft 355 kts 38°
2026-05-07 21:39 48.86961 -116.58684 25013 ft 355 kts 38°
2026-05-07 21:40 48.88733 -116.56034 25014 ft 355 kts 38°
2026-05-07 21:40 48.90477 -116.53423 25014 ft 355 kts 38°
2026-05-07 21:40 48.92248 -116.50768 25014 ft 355 kts 38°
2026-05-07 21:40 48.93991 -116.48154 25014 ft 355 kts 38°
2026-05-07 21:41 48.95765 -116.45489 25014 ft 355 kts 38°
2026-05-07 21:41 48.97499 -116.42883 25011 ft 355 kts 38°
2026-05-07 21:41 48.99278 -116.40207 25005 ft 356 kts 38°
2026-05-07 21:41 49.01017 -116.37588 24998 ft 357 kts 37°
2026-05-07 21:42 49.02795 -116.34907 24989 ft 358 kts 38°
2026-05-07 21:42 49.04542 -116.32270 24982 ft 357 kts 38°
2026-05-07 21:42 49.06318 -116.29588 24974 ft 358 kts 38°
2026-05-07 21:42 49.08084 -116.26918 24969 ft 358 kts 38°
2026-05-07 21:43 49.09842 -116.24255 24964 ft 358 kts 38°
2026-05-07 21:43 49.11612 -116.21572 24962 ft 359 kts 38°
2026-05-07 21:43 49.13382 -116.18889 24962 ft 360 kts 38°
2026-05-07 21:43 49.15174 -116.16167 24962 ft 362 kts 38°
2026-05-07 21:44 49.16938 -116.13485 24962 ft 363 kts 38°
2026-05-07 21:44 49.18722 -116.10768 24961 ft 363 kts 38°
2026-05-07 21:44 49.20507 -116.08046 24960 ft 363 kts 38°
2026-05-07 21:44 49.22292 -116.05322 24959 ft 363 kts 38°
2026-05-07 21:45 49.24079 -116.02593 24960 ft 362 kts 38°
2026-05-07 21:45 49.25838 -115.99902 24960 ft 361 kts 37°
2026-05-07 21:45 49.27622 -115.97170 24960 ft 361 kts 38°
2026-05-07 21:45 49.29389 -115.94461 24960 ft 360 kts 38°
2026-05-07 21:46 49.31177 -115.91718 24961 ft 361 kts 38°
2026-05-07 21:46 49.32938 -115.89014 24962 ft 361 kts 38°
2026-05-07 21:46 49.34726 -115.86319 24958 ft 360 kts 34°
2026-05-07 21:46 49.36771 -115.84174 24982 ft 349 kts 22°
2026-05-07 21:47 49.38867 -115.82387 24964 ft 348 kts 21°
2026-05-07 21:47 49.40975 -115.80608 24957 ft 349 kts 21°
2026-05-07 21:47 49.43119 -115.78795 24956 ft 350 kts 21°
2026-05-07 21:47 49.45231 -115.77000 24958 ft 349 kts 21°
2026-05-07 21:48 49.47355 -115.75188 24962 ft 350 kts 21°
2026-05-07 21:48 49.49464 -115.73383 24963 ft 351 kts 21°
2026-05-07 21:48 49.51609 -115.71542 24962 ft 352 kts 21°
2026-05-07 21:48 49.53733 -115.69717 24960 ft 351 kts 21°
2026-05-07 21:49 49.55836 -115.67903 24957 ft 350 kts 21°
2026-05-07 21:49 49.57972 -115.66060 24958 ft 349 kts 21°
2026-05-07 21:49 49.60072 -115.64245 24962 ft 348 kts 21°
2026-05-07 21:49 49.62184 -115.62419 24962 ft 349 kts 21°
2026-05-07 21:50 49.64291 -115.60595 24962 ft 350 kts 21°
2026-05-07 21:50 49.66419 -115.58749 24960 ft 350 kts 21°
2026-05-07 21:50 49.68545 -115.56902 24958 ft 349 kts 21°
2026-05-07 21:50 49.70652 -115.55070 24957 ft 348 kts 21°
2026-05-07 21:51 49.72739 -115.53254 24962 ft 349 kts 21°
2026-05-07 21:51 49.74865 -115.51402 24963 ft 349 kts 21°
2026-05-07 21:51 49.76969 -115.49568 24960 ft 349 kts 21°
2026-05-07 21:51 49.79094 -115.47714 24958 ft 350 kts 21°
2026-05-07 21:52 49.81207 -115.45867 24959 ft 350 kts 21°
2026-05-07 21:52 49.83293 -115.44041 24960 ft 349 kts 21°
2026-05-07 21:52 49.85422 -115.42178 24961 ft 350 kts 21°
2026-05-07 21:52 49.87541 -115.40322 24962 ft 352 kts 21°
2026-05-07 21:53 49.89676 -115.38448 24960 ft 352 kts 21°
2026-05-07 21:53 49.91785 -115.36595 24959 ft 352 kts 21°
2026-05-07 21:53 49.93936 -115.34702 24958 ft 351 kts 22°
2026-05-07 21:53 49.96048 -115.32842 24962 ft 350 kts 22°
2026-05-07 21:54 49.98159 -115.30983 24960 ft 350 kts 22°
2026-05-07 21:54 50.00282 -115.29110 24959 ft 351 kts 22°
2026-05-07 21:54 50.02383 -115.27254 24960 ft 353 kts 22°
2026-05-07 21:54 50.04528 -115.25356 24962 ft 354 kts 22°
2026-05-07 21:55 50.06654 -115.23474 24960 ft 355 kts 22°
2026-05-07 21:55 50.08803 -115.21570 24960 ft 356 kts 22°
2026-05-07 21:55 50.10971 -115.19649 24789 ft 359 kts 22°
2026-05-07 21:55 50.13123 -115.17738 24359 ft 357 kts 22°
2026-05-07 21:56 50.15285 -115.15818 23920 ft 355 kts 22°
2026-05-07 21:56 50.17393 -115.13941 23484 ft 350 kts 22°
2026-05-07 21:56 50.19493 -115.12070 23046 ft 347 kts 23°
2026-05-07 21:56 50.21592 -115.10200 22607 ft 346 kts 24°
2026-05-07 21:57 50.23647 -115.08366 22174 ft 344 kts 24°
2026-05-07 21:57 50.25716 -115.06519 21734 ft 341 kts 24°
2026-05-07 21:57 50.27774 -115.04681 21293 ft 339 kts 25°
2026-05-07 21:57 50.29808 -115.02861 20854 ft 337 kts 25°
2026-05-07 21:58 50.31800 -115.01077 20419 ft 335 kts 26°
2026-05-07 21:58 50.33815 -114.99271 19977 ft 332 kts 27°
2026-05-07 21:58 50.35825 -114.97468 19532 ft 330 kts 27°
2026-05-07 21:58 50.37796 -114.95699 19091 ft 328 kts 28°
2026-05-07 21:59 50.39761 -114.93932 18650 ft 326 kts 28°
2026-05-07 21:59 50.41714 -114.92175 18210 ft 326 kts 28°
2026-05-07 21:59 50.43656 -114.90426 17771 ft 325 kts 28°
2026-05-07 21:59 50.45632 -114.88644 17325 ft 325 kts 28°
2026-05-07 22:00 50.47561 -114.86903 16888 ft 324 kts 29°
2026-05-07 22:00 50.49528 -114.85125 16443 ft 325 kts 29°
2026-05-07 22:00 50.51461 -114.83377 16006 ft 325 kts 29°
2026-05-07 22:00 50.53418 -114.81605 15564 ft 325 kts 29°
2026-05-07 22:01 50.55376 -114.79830 15121 ft 325 kts 29°
2026-05-07 22:01 50.57339 -114.78049 14676 ft 325 kts 30°
2026-05-07 22:01 50.59282 -114.76284 14237 ft 326 kts 30°
2026-05-07 22:01 50.61234 -114.74509 13796 ft 326 kts 30°
2026-05-07 22:02 50.63206 -114.72716 13350 ft 326 kts 30°
2026-05-07 22:02 50.65160 -114.70937 12909 ft 326 kts 30°
2026-05-07 22:02 50.67124 -114.69147 12467 ft 327 kts 30°
2026-05-07 22:02 50.69083 -114.67359 12025 ft 327 kts 30°
2026-05-07 22:03 50.70990 -114.65447 11573 ft 327 kts 38°
2026-05-07 22:03 50.72613 -114.62980 11145 ft 326 kts 46°
2026-05-07 22:03 50.74194 -114.60374 10702 ft 326 kts 46°
2026-05-07 22:03 50.75740 -114.57821 10265 ft 326 kts 46°
2026-05-07 22:04 50.77293 -114.55257 10029 ft 318 kts 45°
2026-05-07 22:04 50.78807 -114.52763 9969 ft 306 kts 45°
2026-05-07 22:04 50.80249 -114.50391 9956 ft 295 kts 45°
2026-05-07 22:04 50.81661 -114.48099 9954 ft 285 kts 44°
2026-05-07 22:05 50.83068 -114.45950 9955 ft 276 kts 43°
2026-05-07 22:05 50.84427 -114.43900 9956 ft 268 kts 43°
2026-05-07 22:05 50.85754 -114.41894 9954 ft 261 kts 43°
2026-05-07 22:05 50.87078 -114.39890 9811 ft 261 kts 43°
2026-05-07 22:06 50.88379 -114.37914 9646 ft 262 kts 43°
2026-05-07 22:06 50.89702 -114.35904 9479 ft 262 kts 42°
2026-05-07 22:06 50.90980 -114.33849 9301 ft 263 kts 50°
2026-05-07 22:06 50.91653 -114.31207 9114 ft 265 kts 83°
2026-05-07 22:07 50.91640 -114.28290 9044 ft 261 kts 90°
2026-05-07 22:07 50.91568 -114.25446 9019 ft 256 kts 91°
2026-05-07 22:07 50.91489 -114.22651 9007 ft 251 kts 91°
2026-05-07 22:07 50.91412 -114.19900 9010 ft 251 kts 91°
2026-05-07 22:08 50.91339 -114.17116 9016 ft 260 kts 90°
2026-05-07 22:08 50.91432 -114.14212 8695 ft 261 kts 81°
2026-05-07 22:08 50.91681 -114.11397 8256 ft 256 kts 80°
2026-05-07 22:08 50.91939 -114.08626 7814 ft 253 kts 80°
2026-05-07 22:09 50.92193 -114.05882 7367 ft 249 kts 80°
2026-05-07 22:09 50.92435 -114.03198 6919 ft 243 kts 80°
2026-05-07 22:09 50.92900 -114.00729 6620 ft 227 kts 60°
2026-05-07 22:09 50.93934 -113.99051 6520 ft 200 kts 23°
2026-05-07 22:10 50.95194 -113.98962 6499 ft 172 kts 351°
2026-05-07 22:10 50.96292 -113.99097 6342 ft 148 kts
2026-05-07 22:10 50.97299 -113.99032 5902 ft 147 kts 356°
2026-05-07 22:10 50.98334 -113.99077 5615 ft 147 kts
2026-05-07 22:11 50.99361 -113.99065 5654 ft 155 kts 360°
2026-05-07 22:11 51.00510 -113.99056 5637 ft 177 kts 359°
2026-05-07 22:11 51.01797 -113.99052 5434 ft 192 kts 360°
2026-05-07 22:11 51.03125 -113.99054 5195 ft 186 kts 359°
2026-05-07 22:12 51.04382 -113.99049 4910 ft 175 kts 360°
2026-05-07 22:12 51.05540 -113.99054 4652 ft 162 kts 359°
2026-05-07 22:12 51.06628 -113.99049 4459 ft 148 kts
2026-05-07 22:12 51.07624 -113.99048 4238 ft 137 kts 359°
2026-05-07 22:13 51.08579 -113.99068 4162 ft 138 kts
2026-05-07 22:13 51.09530 -113.99043 4014 ft 137 kts 360°
2026-05-07 22:13 51.10477 -113.99046 3775 ft 137 kts 360°
2026-05-07 22:13 51.11387 -113.99036 3561 ft 123 kts 359°
2026-05-07 22:14 51.12153 -113.99038 3570 ft 99 kts 360°
2026-05-07 22:14 51.12629 -113.99034 3577 ft 55 kts
2026-05-07 22:14 51.12955 -113.99074 3580 ft 33 kts 336°
2026-05-07 22:14 51.13063 -113.99161 3580 ft 17 kts 330°
2026-05-07 22:15 51.13152 -113.99252 3580 ft 15 kts 309°
2026-05-07 22:15 51.13156 -113.99464 3580 ft 24 kts 268°
2026-05-07 22:15 51.13161 -113.99744 3576 ft 26 kts 270°
2026-05-07 22:15 51.13161 -113.99925 3573 ft 0 kts 269°
2026-05-07 22:16 51.13161 -113.99965 3571 ft 11 kts 269°
2026-05-07 22:16 51.13158 -114.00101 3569 ft 12 kts 256°
2026-05-07 22:16 51.13114 -114.00191 3567 ft 5 kts 216°
2026-05-07 22:16 51.13095 -114.00212 3567 ft 3 kts 212°
2026-05-07 22:17 51.13079 -114.00228 3567 ft 0 kts 212°
2026-05-07 22:17 51.13078 -114.00229 3567 ft 0 kts 212°